Home > Weather > Bălți > Past weeks

Flag for Moldova Past Weather in Bălți, Moldova — Yesterday and Last 2 Weeks

Now
64 °F

Mild.


Feels Like: 64 °F
Forecast: 63 / 67 °F
Wind: 8 mph from North

Location: Baltsi-Leadoveni - The North of Moldova

Current Time: Jun 1, 2016 at 8:36:50 AM

Latest Report: Jun 1, 2016 at 8:00 AM


Visibility: N/A

Pressure: 29.92 "Hg

Humidity: 88%

Dew Point: 61 °F

Location of BălțiLocation

Past Weather in Bălți — Graph

°F

Bălți Temperature Yesterday

Maximum temperature yesterday: 79 °F (at 4:00 PM)
Minimum temperature yesterday: 61 °F (at 5:00 AM)
Average temperature yesterday: 68 °F

High & Low Weather Summary for the Past Weeks

 TemperatureHumidityPressure
High79 °F (May 28, 3:30 PM)100% (May 25, 5:00 AM)30.07 "Hg (May 25, 5:00 AM)
Low41 °F (May 19, 4:30 AM)33% (May 21, 3:30 PM)29.59 "Hg (May 25, 4:00 AM)
Average62 °F69%29.90 "Hg
* Reported May 17 7:00 AM — Jun 1 7:30 AM, Bălți, Weather by CustomWeather, © 2016

Note: Actual official high and low records may vary slightly from our data, if they occured in-between our weather recording intervals... More about our weather records

Advertising

Bălți Weather History for the Previous 24 Hours

Scroll right to see more
 ConditionsComfort  
Time TempWeatherWind HumidityBarometerVisibility
7:30 AM
Wed, Jun 1
64 °FMild.9 mph88%29.92 "HgN/A
7:00 AM64 °FMild.8 mph88%29.92 "HgN/A
6:00 AM63 °FMild.8 mph94%29.89 "HgN/A
5:30 AM63 °FMild.8 mph94%29.89 "HgN/A
5:00 AM63 °FMild.7 mph94%29.89 "HgN/A
4:30 AM63 °FMild.6 mph94%29.89 "HgN/A
4:00 AM63 °FMild.7 mph94%29.89 "HgN/A
3:30 AM63 °FMild.6 mph94%29.89 "HgN/A
3:00 AM63 °FMild.6 mph94%29.89 "HgN/A
2:30 AM61 °FCool.5 mph100%29.89 "HgN/A
2:00 AM63 °FMild.5 mph94%29.89 "HgN/A
1:30 AM63 °FMild.8 mph94%29.89 "HgN/A
1:00 AM63 °FMild.7 mph94%29.89 "HgN/A
12:30 AM63 °FMild.8 mph94%29.89 "HgN/A
12:00 AM64 °FMild.7 mph88%29.89 "HgN/A
11:30 PM
Tue, May 31
64 °FMild.5 mph88%29.89 "HgN/A
11:00 PM64 °FMild.6 mph94%29.89 "HgN/A
10:00 PM66 °FMild.2 mph83%29.89 "HgN/A
9:30 PM66 °FMild.6 mph88%29.89 "HgN/A
9:00 PM66 °FMild.7 mph88%29.86 "HgN/A
8:00 PM68 °FMild.8 mph83%29.86 "HgN/A
7:30 PM68 °FMild.10 mph83%29.86 "HgN/A
7:00 PM70 °FMild.7 mph78%29.86 "HgN/A
6:00 PM70 °FMild.14 mph69%29.83 "HgN/A
5:30 PM73 °FMild.6 mph65%29.83 "HgN/A
5:00 PM73 °FMild.6 mph65%29.83 "HgN/A
4:30 PM75 °FMild.9 mph61%29.83 "HgN/A
4:00 PM79 °FWarm.5 mph58%29.83 "HgN/A
3:00 PM77 °FWarm.No wind57%29.83 "HgN/A
2:30 PM77 °FWarm.3 mph57%29.83 "HgN/A
2:00 PM75 °FMild.5 mph69%29.83 "HgN/A
1:30 PM75 °FMild.6 mph69%29.83 "HgN/A
1:00 PM73 °FMild.5 mph74%29.83 "HgN/A
12:30 PM73 °FMild.7 mph74%29.83 "HgN/A
12:00 PM72 °FMild.7 mph78%29.83 "HgN/A
11:30 AM70 °FMild.6 mph88%29.83 "HgN/A
11:00 AM68 °FMild.8 mph94%29.83 "HgN/A
10:30 AM70 °FMild.1 mph78%29.83 "HgN/A
10:00 AM70 °FMild.1 mph83%29.83 "HgN/A
9:30 AM68 °FMild.3 mph88%29.83 "HgN/A
9:00 AM68 °FMild.3 mph83%29.83 "HgN/A
8:00 AM68 °FMild.3 mph83%29.80 "HgN/A
Weather by CustomWeather, © 2016

See weather overviewHow to use our weather pages